Location: Christchurch
(43.5330°S, 172.6330°E)
Time: 04:02:58
(UTC+12:00)

Cosmos 2208 Rocket - Visible Passes

Search period start: 22 April 2019 00:00
Search period end: 02 May 2019 00:00
Orbit: 755 x 805 km, 74.0° (Epoch: 21 April)

Date Brightness Start Highest point End Pass type
(mag) Time Alt. Az. Time Alt. Az. Time Alt. Az.
22 Apr 4.7 04:27:38 48° NE 04:27:38 48° NE 04:31:32 10° NNE visible
22 Apr 5.6 06:08:20 15° W 06:08:20 15° W 06:10:37 10° NW visible
22 Apr 5.0 19:01:08 10° NW 19:06:24 50° WSW 19:11:47 10° S visible
23 Apr 6.5 03:57:11 14° NE 03:57:11 14° NE 03:57:53 10° NE visible
23 Apr 5.9 05:37:52 14° NW 05:37:52 14° NW 05:38:45 10° NNW visible
23 Apr 4.3 18:27:29 10° NNW 18:32:54 77° WSW 18:38:27 10° SSE visible
23 Apr 6.9 20:13:41 10° WSW 20:16:14 13° SW 20:18:49 10° SSW visible
24 Apr 6.6 19:38:36 10° W 19:42:26 19° SW 19:46:18 10° S visible
25 Apr 6.1 19:04:06 10° WNW 19:08:42 27° WSW 19:13:22 10° S visible
26 Apr 5.5 18:30:00 10° NW 18:35:05 40° WSW 18:40:16 10° S visible
27 Apr 7.0 19:44:03 10° WSW 19:45:07 10° SW 19:46:11 10° SW visible
28 Apr 6.7 19:08:04 10° W 19:11:15 15° SW 19:14:27 10° SSW visible
29 Apr 6.4 18:33:16 10° WNW 18:37:28 22° SW 18:41:43 10° S visible
30 Apr 5.9 17:58:57 10° WNW 18:03:47 32° WSW 18:08:42 10° S visible
